Location: ??
(35.4032°N, 139.3073°E)
Time: 12:20:05
(UTC+00:00)

ARGOS - Pass Details

Date: 13 April 2024
Orbit: 818 x 834 km, 98.4° (Epoch: 26 May)

Event Time Altitude Azimuth Distance (km) Brightness Sun altitude
Rises 19:30:54 0° 16° (NNE) 3,365 6.9 -8.9°
Reaches altitude 10° 19:33:18 10° 20° (NNE) 2,426 6.2 -8.4°
Maximum altitude 19:38:37 61° 101° (E) 924 3.8 -7.4°
Drops below altitude 10° 19:43:53 10° 182° (S) 2,404 5.4 -6.3°
Sets 19:46:14 0° 185° (S) 3,331 6.1 -5.9°
